GW4558 Weather Reports


time (UTC)temp
C
wind
direction
speed
KPH
gust
KPH
rain 1hr
cm
rain 24hr
cm
rain mn
cm
humidity
%
barometer
mb
20260510203034 21 12 3.2 12.9 0.00 0.00 0.00 44 1019.9
20260510201536 20 67 4.8 12.9 0.00 0.00 0.00 44 1020.0
20260510200038 21 342 3.2 8.0 0.00 0.00 0.00 45 1020.2
20260510194548 21 344 3.2 12.9 0.00 0.00 0.00 45 1020.0
20260510193040 21 101 1.6 12.9 0.00 0.00 0.00 44 1020.1
20260510191538 21 316 1.6 14.5 0.00 0.00 0.00 47 1020.2
20260510190047 21 355 4.8 16.1 0.00 0.00 0.00 44 1020.2
20260510184537 20 0 4.8 19.3 0.00 0.00 0.00 44 1020.2
20260510183037 20 30 1.6 12.9 0.00 0.00 0.00 46 1020.1
20260510181533 20 109 3.2 14.5 0.00 0.00 0.00 49 1020.1
20260510180037 20 360 3.2 17.7 0.00 0.00 0.00 43 1020.0
20260510174540 20 56 4.8 19.3 0.00 0.00 0.00 49 1019.6
20260510173036 20 99 6.4 19.3 0.00 0.00 0.00 47 1019.7
20260510171533 19 35 4.8 20.9 0.00 0.00 0.00 46 1019.7
20260510170037 19 87 4.8 17.7 0.00 0.00 0.00 47 1019.6
20260510164534 19 77 8.0 22.5 0.00 0.00 0.00 49 1019.5
20260510163034 18 22 6.4 19.3 0.00 0.00 0.00 46 1019.3
20260510161537 18 59 3.2 14.5 0.00 0.00 0.00 51 1019.3
20260510160037 18 62 6.4 16.1 0.00 0.00 0.00 53 1019.5
20260510154538 17 69 6.4 25.7 0.00 0.00 0.00 52 1019.2
20260510153037 17 115 4.8 19.3 0.00 0.00 0.00 53 1019.2
20260510151545 17 91 4.8 16.1 0.00 0.00 0.00 53 1019.4
20260510150048 16 66 4.8 20.9 0.00 0.00 0.00 55 1019.4
20260510144553 16 33 4.8 19.3 0.00 0.00 0.00 58 1019.4
20260510143036 16 61 4.8 19.3 0.00 0.00 0.00 58 1019.5
20260510141536 16 67 3.2 22.5 0.00 0.00 0.00 61 1019.2
20260510140035 16 46 4.8 14.5 0.00 0.00 0.00 64 1018.8
20260510134542 15 77 1.6 16.1 0.00 0.00 0.00 68 1018.4
20260510133044 15 103 8.0 19.3 0.00 0.00 0.00 68 1018.2
20260510131540 16 74 6.4 17.7 0.00 0.00 0.00 71 1018.1
20260510130035 15 57 3.2 16.1 0.00 0.00 0.00 77 1017.6
20260510124532 15 0 3.2 11.3 0.00 0.00 0.00 80 1017.4
20260510123040 14 60 3.2 11.3 0.00 0.00 0.00 82 1017.1
20260510121537 14 84 0.0 8.0 0.00 0.00 0.00 84 1017.2
20260510120035 13 44 3.2 12.9 0.00 0.00 0.00 84 1016.9
20260510114601 13 34 1.6 8.0 0.00 0.00 0.00 85 1016.5
20260510113051 14 0 1.6 8.0 0.00 0.00 0.00 86 1016.0
20260510111542 14 43 0.0 6.4 0.00 0.00 0.00 86 1015.9
20260510110040 14 0 0.0 4.8 0.00 0.00 0.00 86 1016.1
20260510104547 14 0 0.0 4.8 0.00 0.03 0.00 85 1016.1
20260510103037 14 0 0.0 3.2 0.00 0.03 0.00 84 1015.9
20260510101536 14 57 1.6 6.4 0.00 0.03 0.00 84 1015.2
20260510100047 15 0 0.0 3.2 0.00 0.03 0.00 83 1015.1
20260510094545 15 12 0.0 1.6 0.00 0.03 0.00 82 1015.1
20260510093037 15 0 0.0 1.6 0.00 0.03 0.00 82 1014.6
20260510091537 15 0 0.0 3.2 0.00 0.03 0.00 81 1014.3
20260510090040 15 0 0.0 3.2 0.00 0.03 0.00 81 1014.2
20260510084536 15 0 0.0 3.2 0.00 0.03 0.00 81 1014.0
20260510083041 15 0 0.0 1.6 0.00 0.03 0.00 82 1013.9
20260510081538 15 0 0.0 3.2 0.00 0.03 0.00 82 1014.0
20260510080038 15 0 0.0 0.0 0.00 0.03 0.00 82 1013.9
20260510074542 14 0 0.0 0.0 0.00 0.03 0.00 83 1013.7
20260510073039 14 0 0.0 0.0 0.00 0.03 0.00 82 1013.6
20260510071537 15 0 0.0 0.0 0.00 0.03 0.00 81 1013.7
20260510070038 15 0 0.0 3.2 0.00 0.03 0.00 80 1013.8
20260510064535 15 0 0.0 0.0 0.00 0.03 0.00 80 1013.5
20260510063041 15 0 0.0 0.0 0.00 0.03 0.00 77 1013.4
20260510061534 16 0 0.0 0.0 0.00 0.03 0.00 76 1013.3
20260510060041 16 0 0.0 0.0 0.00 0.03 0.00 75 1013.3
20260510054538 17 0 0.0 0.0 0.00 0.05 0.00 72 1013.2
20260510053039 17 0 0.0 0.0 0.00 0.05 0.00 70 1013.2
20260510051538 18 0 0.0 4.8 0.00 0.05 0.00 68 1013.3
20260510050037 18 0 0.0 1.6 0.00 0.05 0.00 68 1013.3
20260510044536 18 0 1.6 4.8 0.00 0.05 0.05 67 1013.0
20260510043034 18 0 0.0 0.0 0.00 0.05 0.05 68 1013.0
20260510041546 17 0 0.0 12.9 0.00 0.05 0.05 69 1013.0
20260510040039 16 360 0.0 4.8 0.00 0.05 0.05 71 1012.4
20260510034537 16 0 0.0 0.0 0.00 0.05 0.05 72 1011.9
20260510033044 17 0 0.0 0.0 0.00 0.05 0.05 72 1011.9
20260510031535 17 0 0.0 0.0 0.00 0.05 0.05 71 1011.8
20260510030034 17 0 0.0 0.0 0.00 0.05 0.05 67 1011.7
20260510024539 17 0 0.0 0.0 0.00 0.97 0.05 67 1011.5
20260510023034 18 0 0.0 0.0 0.00 0.97 0.05 69 1011.2
20260510021540 18 0 0.0 0.0 0.00 0.97 0.05 64 1010.8
20260510020037 20 0 0.0 0.0 0.00 0.97 0.05 66 1010.1
20260510014538 20 0 0.0 0.0 0.00 1.22 0.05 61 1010.1
20260510013040 21 0 0.0 0.0 0.00 1.22 0.05 58 1009.8
20260510011540 22 0 0.0 0.0 0.00 1.22 0.05 55 1009.7
20260510010038 22 0 0.0 0.0 0.00 1.22 0.05 52 1009.4
20260510004538 23 0 0.0 1.6 0.00 1.22 0.05 50 1009.2
20260510003049 24 0 0.0 0.0 0.00 1.22 0.05 50 1009.2
20260510001542 25 0 0.0 1.6 0.00 1.22 0.05 48 1009.3
20260510000043 25 0 0.0 1.6 0.00 1.22 0.05 47 1009.4
20260509234549 26 0 0.0 4.8 0.00 1.22 0.05 45 1009.5
20260509233038 26 0 0.0 3.2 0.00 1.22 0.05 45 1009.4
20260509231538 26 212 0.0 4.8 0.00 1.22 0.05 40 1009.3
20260509230034 26 0 0.0 3.2 0.00 1.22 0.05 42 1009.2
20260509224536 27 0 0.0 6.4 0.00 1.22 0.05 41 1009.3
20260509223040 27 209 0.0 6.4 0.00 1.22 0.05 38 1009.3
20260509221536 27 0 1.6 8.0 0.00 1.22 0.05 37 1009.4
20260509220054 27 214 1.6 6.4 0.00 1.22 0.05 37 1009.3
20260509214542 27 242 3.2 12.9 0.00 1.22 0.05 39 1009.1
20260509213040 27 0 3.2 9.7 0.00 1.22 0.05 40 1009.1
20260509211542 27 231 1.6 8.0 0.00 1.22 0.05 41 1009.4
20260509210037 27 0 1.6 11.3 0.00 1.22 0.05 42 1009.6
20260509204544 27 244 1.6 9.7 0.00 1.22 0.05 41 1009.8